| time (UTC) | temp F | wind direction | speed knots | gust knots | rain 1hr in | rain 24hr in | rain mn in | humidity % | barometer mb |
| 20260504215027 | 72 | 178 | 1.7 | 9.6 | 0.00 | 0.00 | 0.00 | 35 | 1006.8 |
| 20260504214537 | 72 | 214 | 4.3 | 9.6 | 0.00 | 0.00 | 0.00 | 34 | 1006.8 |
| 20260504214027 | 72 | 197 | 1.7 | 8.7 | 0.00 | 0.00 | 0.00 | 34 | 1006.9 |
| 20260504213527 | 72 | 204 | 3.5 | 8.7 | 0.00 | 0.00 | 0.00 | 34 | 1007.1 |
| 20260504213044 | 72 | 189 | 3.5 | 7.0 | 0.00 | 0.00 | 0.00 | 33 | 1007.0 |
| 20260504212527 | 72 | 175 | 1.7 | 6.1 | 0.00 | 0.00 | 0.00 | 35 | 1007.0 |
| 20260504212027 | 72 | 200 | 1.7 | 8.7 | 0.00 | 0.00 | 0.00 | 35 | 1007.0 |
| 20260504211539 | 72 | 178 | 3.5 | 8.7 | 0.00 | 0.00 | 0.00 | 34 | 1006.9 |
| 20260504211028 | 72 | 189 | 1.7 | 11.3 | 0.00 | 0.00 | 0.00 | 35 | 1007.1 |
| 20260504210528 | 72 | 182 | 1.7 | 11.3 | 0.00 | 0.00 | 0.00 | 34 | 1007.2 |
| 20260504210045 | 72 | 186 | 2.6 | 8.7 | 0.00 | 0.00 | 0.00 | 32 | 1007.1 |
| 20260504205528 | 72 | 329 | 4.3 | 8.7 | 0.00 | 0.00 | 0.00 | 32 | 1007.0 |
| 20260504205031 | 72 | 158 | 3.5 | 7.0 | 0.00 | 0.00 | 0.00 | 34 | 1007.0 |
| 20260504204538 | 72 | 164 | 0.9 | 5.2 | 0.00 | 0.00 | 0.00 | 33 | 1006.9 |
| 20260504204027 | 72 | 0 | 1.7 | 9.6 | 0.00 | 0.00 | 0.00 | 33 | 1007.1 |
| 20260504203527 | 72 | 252 | 3.5 | 9.6 | 0.00 | 0.00 | 0.00 | 33 | 1007.0 |
| 20260504203036 | 72 | 185 | 4.3 | 9.6 | 0.00 | 0.00 | 0.00 | 32 | 1007.0 |
| 20260504202528 | 72 | 0 | 2.6 | 9.6 | 0.00 | 0.00 | 0.00 | 33 | 1007.0 |
| 20260504202027 | 72 | 229 | 3.5 | 9.6 | 0.00 | 0.00 | 0.00 | 34 | 1007.1 |
| 20260504201534 | 72 | 219 | 1.7 | 8.7 | 0.00 | 0.00 | 0.00 | 33 | 1007.1 |
| 20260504201027 | 72 | 190 | 3.5 | 8.7 | 0.00 | 0.00 | 0.00 | 33 | 1007.2 |
| 20260504200527 | 72 | 250 | 1.7 | 7.0 | 0.00 | 0.00 | 0.00 | 35 | 1007.2 |
| 20260504200042 | 72 | 194 | 3.5 | 7.0 | 0.00 | 0.00 | 0.00 | 32 | 1007.4 |
| 20260504195526 | 72 | 244 | 1.7 | 7.0 | 0.00 | 0.00 | 0.00 | 35 | 1007.3 |
| 20260504195027 | 72 | 174 | 2.6 | 8.7 | 0.00 | 0.00 | 0.00 | 35 | 1007.3 |
| 20260504194544 | 72 | 223 | 4.3 | 8.7 | 0.00 | 0.00 | 0.00 | 32 | 1007.5 |
| 20260504194028 | 72 | 177 | 3.5 | 8.7 | 0.00 | 0.00 | 0.00 | 32 | 1007.5 |
| 20260504193528 | 71 | 252 | 1.7 | 7.0 | 0.00 | 0.00 | 0.00 | 35 | 1007.4 |
| 20260504193044 | 71 | 198 | 3.5 | 8.7 | 0.00 | 0.00 | 0.00 | 34 | 1007.5 |
| 20260504192527 | 71 | 173 | 3.5 | 9.6 | 0.00 | 0.00 | 0.00 | 35 | 1007.4 |
| 20260504192028 | 71 | 189 | 4.3 | 9.6 | 0.00 | 0.00 | 0.00 | 33 | 1007.6 |
| 20260504191604 | 71 | 207 | 1.7 | 8.7 | 0.00 | 0.00 | 0.00 | 34 | 1007.7 |
| 20260504191027 | 70 | 224 | 3.5 | 8.7 | 0.00 | 0.00 | 0.00 | 34 | 1007.8 |
| 20260504190527 | 70 | 134 | 2.6 | 7.8 | 0.00 | 0.00 | 0.00 | 36 | 1007.9 |
| 20260504190043 | 70 | 218 | 0.9 | 5.2 | 0.00 | 0.00 | 0.00 | 34 | 1007.8 |
| 20260504185527 | 71 | 136 | 1.7 | 5.2 | 0.00 | 0.00 | 0.00 | 34 | 1008.0 |
| 20260504185027 | 71 | 233 | 1.7 | 7.8 | 0.00 | 0.00 | 0.00 | 35 | 1007.9 |
| 20260504184550 | 71 | 221 | 2.6 | 7.8 | 0.00 | 0.00 | 0.00 | 35 | 1008.0 |
| 20260504184027 | 71 | 244 | 2.6 | 7.8 | 0.00 | 0.00 | 0.00 | 35 | 1008.0 |
| 20260504183527 | 70 | 188 | 2.6 | 9.6 | 0.00 | 0.00 | 0.00 | 37 | 1008.2 |
| 20260504183038 | 70 | 189 | 2.6 | 9.6 | 0.00 | 0.00 | 0.00 | 35 | 1008.2 |
| 20260504182529 | 71 | 241 | 2.6 | 9.6 | 0.00 | 0.00 | 0.00 | 35 | 1008.2 |
| 20260504182029 | 71 | 257 | 1.7 | 8.7 | 0.00 | 0.00 | 0.00 | 36 | 1008.2 |
| 20260504181544 | 71 | 248 | 3.5 | 8.7 | 0.00 | 0.00 | 0.00 | 34 | 1008.3 |
| 20260504181028 | 71 | 190 | 3.5 | 8.7 | 0.00 | 0.00 | 0.00 | 35 | 1008.2 |
| 20260504180528 | 70 | 202 | 2.6 | 6.1 | 0.00 | 0.00 | 0.00 | 36 | 1008.2 |
| 20260504180037 | 70 | 180 | 1.7 | 8.7 | 0.00 | 0.00 | 0.00 | 36 | 1008.3 |
| 20260504175527 | 70 | 261 | 3.5 | 8.7 | 0.00 | 0.00 | 0.00 | 34 | 1008.2 |
| 20260504175027 | 70 | 211 | 2.6 | 9.6 | 0.00 | 0.00 | 0.00 | 35 | 1008.3 |
| 20260504174535 | 70 | 157 | 3.5 | 13.0 | 0.00 | 0.00 | 0.00 | 34 | 1008.4 |
| 20260504174028 | 70 | 210 | 2.6 | 13.0 | 0.00 | 0.00 | 0.00 | 37 | 1008.6 |
| 20260504173526 | 70 | 282 | 3.5 | 13.0 | 0.00 | 0.00 | 0.00 | 34 | 1008.3 |
| 20260504173044 | 70 | 203 | 3.5 | 8.7 | 0.00 | 0.00 | 0.00 | 36 | 1008.7 |
| 20260504172526 | 70 | 264 | 3.5 | 10.4 | 0.00 | 0.00 | 0.00 | 36 | 1008.5 |
| 20260504172028 | 69 | 224 | 2.6 | 10.4 | 0.00 | 0.00 | 0.00 | 36 | 1008.7 |
| 20260504171540 | 70 | 239 | 5.2 | 10.4 | 0.00 | 0.00 | 0.00 | 35 | 1008.8 |
| 20260504171028 | 69 | 341 | 2.6 | 9.6 | 0.00 | 0.00 | 0.00 | 35 | 1008.9 |
| 20260504170529 | 69 | 332 | 2.6 | 8.7 | 0.00 | 0.00 | 0.00 | 39 | 1009.0 |
| 20260504151026 | 64 | 188 | 2.6 | 9.6 | 0.00 | 0.00 | 0.00 | 42 | 1010.2 |
| 20260504150531 | 64 | 172 | 4.3 | 9.6 | 0.00 | 0.00 | 0.00 | 39 | 1010.3 |
| 20260504141029 | 61 | 215 | 1.7 | 7.8 | 0.00 | 0.00 | 0.00 | 43 | 1011.0 |
| 20260504140527 | 61 | 180 | 2.6 | 7.0 | 0.00 | 0.00 | 0.00 | 44 | 1010.9 |
| 20260504130527 | 56 | 191 | 2.6 | 7.0 | 0.00 | 0.00 | 0.00 | 53 | 1011.5 |
| 20260504110529 | 35 | 0 | 0.0 | 0.0 | 0.00 | 0.00 | 0.00 | 87 | 1011.9 |
| 20260504100528 | 34 | 0 | 0.0 | 0.0 | 0.00 | 0.00 | 0.00 | 86 | 1011.9 |
| 20260504081541 | 35 | 0 | 0.0 | 0.0 | 0.00 | 0.00 | 0.00 | 85 | 1011.3 |
| 20260504081032 | 35 | 0 | 0.0 | 0.0 | 0.00 | 0.00 | 0.00 | 85 | 1011.4 |
| 20260504080529 | 35 | 0 | 0.0 | 0.0 | 0.00 | 0.00 | 0.00 | 85 | 1011.4 |
| 20260504080217 | 35 | 0 | 0.0 | 0.0 | 0.00 | 0.00 | 0.00 | 85 | 1011.5 |
| 20260504050528 | 39 | 0 | 0.0 | 0.0 | 0.00 | 0.00 | 0.00 | 80 | 1011.1 |
| 20260504050117 | 39 | 0 | 0.0 | 0.9 | 0.00 | 0.00 | 0.00 | 79 | 1011.0 |
| 20260504045528 | 39 | 0 | 0.0 | 0.9 | 0.00 | 0.00 | 0.00 | 79 | 1011.1 |
| 20260504045028 | 40 | 0 | 0.0 | 0.0 | 0.00 | 0.00 | 0.00 | 79 | 1011.0 |
| 20260504044543 | 40 | 0 | 0.0 | 0.0 | 0.00 | 0.00 | 0.00 | 79 | 1011.1 |
| 20260504044028 | 40 | 0 | 0.0 | 0.0 | 0.00 | 0.00 | 0.00 | 79 | 1011.2 |
| 20260504043535 | 40 | 0 | 0.0 | 0.0 | 0.00 | 0.00 | 0.00 | 80 | 1011.1 |
| 20260504043042 | 40 | 0 | 0.0 | 0.9 | 0.00 | 0.00 | 0.00 | 80 | 1011.0 |
| 20260504042528 | 40 | 0 | 0.0 | 0.9 | 0.00 | 0.00 | 0.00 | 80 | 1011.2 |
| 20260504042028 | 40 | 0 | 0.0 | 0.9 | 0.00 | 0.00 | 0.00 | 80 | 1011.1 |
| 20260504041541 | 40 | 0 | 0.0 | 0.0 | 0.00 | 0.00 | 0.00 | 79 | 1011.2 |
| 20260504041028 | 40 | 0 | 0.0 | 0.0 | 0.00 | 0.00 | 0.00 | 79 | 1011.2 |
| 20260504040529 | 40 | 0 | 0.0 | 0.0 | 0.00 | 0.00 | 0.00 | 78 | 1011.2 |
| 20260504040043 | 40 | 0 | 0.0 | 0.0 | 0.00 | 0.00 | 0.00 | 78 | 1011.1 |
| 20260504035532 | 40 | 0 | 0.0 | 0.0 | 0.00 | 0.00 | 0.00 | 77 | 1011.2 |
| 20260504035029 | 40 | 0 | 0.0 | 0.0 | 0.00 | 0.00 | 0.00 | 77 | 1011.1 |
| 20260504034552 | 40 | 0 | 0.0 | 0.0 | 0.00 | 0.00 | 0.00 | 77 | 1011.2 |
| 20260504034028 | 41 | 0 | 0.0 | 0.0 | 0.00 | 0.00 | 0.00 | 76 | 1011.2 |
| 20260504033528 | 41 | 0 | 0.0 | 0.0 | 0.00 | 0.00 | 0.00 | 76 | 1011.2 |
| 20260504033055 | 41 | 0 | 0.0 | 0.0 | 0.00 | 0.00 | 0.00 | 76 | 1011.1 |
| 20260504032528 | 41 | 0 | 0.0 | 0.0 | 0.00 | 0.00 | 0.00 | 75 | 1011.1 |
| 20260504032028 | 41 | 0 | 0.0 | 0.0 | 0.00 | 0.00 | 0.00 | 75 | 1011.1 |
| 20260504031559 | 42 | 0 | 0.0 | 0.0 | 0.00 | 0.00 | 0.00 | 74 | 1011.0 |
| 20260504031028 | 42 | 0 | 0.0 | 0.0 | 0.00 | 0.00 | 0.00 | 74 | 1011.0 |
| 20260504030528 | 42 | 0 | 0.0 | 0.0 | 0.00 | 0.00 | 0.00 | 74 | 1010.9 |
| 20260504030056 | 42 | 0 | 0.0 | 0.0 | 0.00 | 0.00 | 0.00 | 73 | 1010.9 |
| 20260504025528 | 42 | 0 | 0.0 | 0.0 | 0.00 | 0.00 | 0.00 | 72 | 1010.9 |
| 20260504025029 | 43 | 0 | 0.0 | 0.0 | 0.00 | 0.00 | 0.00 | 71 | 1010.9 |
| 20260504024543 | 43 | 0 | 0.0 | 0.0 | 0.00 | 0.00 | 0.00 | 71 | 1011.0 |
| 20260504024028 | 43 | 0 | 0.0 | 0.0 | 0.00 | 0.00 | 0.00 | 71 | 1011.0 |
| 20260504023528 | 44 | 0 | 0.0 | 0.0 | 0.00 | 0.00 | 0.00 | 69 | 1011.0 |
| 20260504023044 | 44 | 0 | 0.0 | 0.0 | 0.00 | 0.00 | 0.00 | 69 | 1011.0 |
| 20260504022530 | 44 | 0 | 0.0 | 1.7 | 0.00 | 0.00 | 0.00 | 68 | 1010.9 |
| 20260504022027 | 44 | 0 | 0.0 | 1.7 | 0.00 | 0.00 | 0.00 | 67 | 1010.9 |
| 20260504021540 | 45 | 0 | 0.0 | 0.9 | 0.00 | 0.00 | 0.00 | 66 | 1010.9 |
| 20260504021027 | 45 | 0 | 0.0 | 0.0 | 0.00 | 0.00 | 0.00 | 66 | 1011.0 |
| 20260504020527 | 45 | 0 | 0.0 | 0.0 | 0.00 | 0.00 | 0.00 | 66 | 1010.9 |
| 20260504020041 | 46 | 0 | 0.0 | 0.0 | 0.00 | 0.00 | 0.00 | 66 | 1010.9 |
| 20260504015528 | 46 | 0 | 0.0 | 0.0 | 0.00 | 0.00 | 0.00 | 66 | 1010.9 |
| 20260504015030 | 47 | 0 | 0.0 | 0.0 | 0.00 | 0.00 | 0.00 | 66 | 1010.9 |
| 20260504014542 | 47 | 0 | 0.0 | 0.0 | 0.00 | 0.00 | 0.00 | 66 | 1010.8 |
| 20260504014032 | 48 | 0 | 0.0 | 0.0 | 0.00 | 0.00 | 0.00 | 66 | 1010.8 |
| 20260504013526 | 48 | 0 | 0.0 | 0.0 | 0.00 | 0.00 | 0.00 | 67 | 1010.9 |
| 20260504013041 | 48 | 0 | 0.0 | 0.0 | 0.00 | 0.00 | 0.00 | 67 | 1010.9 |
| 20260504012528 | 49 | 0 | 0.0 | 0.0 | 0.00 | 0.00 | 0.00 | 66 | 1010.8 |
| 20260504012027 | 49 | 0 | 0.0 | 0.0 | 0.00 | 0.00 | 0.00 | 61 | 1010.7 |
| 20260504011542 | 49 | 0 | 0.0 | 0.0 | 0.00 | 0.00 | 0.00 | 56 | 1010.8 |
| 20260504011032 | 50 | 0 | 0.0 | 0.0 | 0.00 | 0.00 | 0.00 | 53 | 1010.7 |
| 20260504010527 | 50 | 0 | 0.0 | 0.0 | 0.00 | 0.00 | 0.00 | 53 | 1010.7 |
| 20260504010046 | 50 | 0 | 0.0 | 0.0 | 0.00 | 0.00 | 0.00 | 54 | 1010.5 |
| 20260504005528 | 51 | 0 | 0.0 | 0.0 | 0.00 | 0.00 | 0.00 | 57 | 1010.5 |
| 20260504005028 | 51 | 0 | 0.0 | 0.0 | 0.00 | 0.00 | 0.00 | 54 | 1010.4 |
| 20260504004541 | 51 | 0 | 0.0 | 0.0 | 0.00 | 0.00 | 0.00 | 53 | 1010.4 |
| 20260504004027 | 52 | 0 | 0.0 | 0.0 | 0.00 | 0.00 | 0.00 | 52 | 1010.2 |
| 20260504003527 | 52 | 0 | 0.0 | 0.0 | 0.00 | 0.00 | 0.00 | 50 | 1010.2 |
| 20260504003043 | 53 | 0 | 0.0 | 0.0 | 0.00 | 0.00 | 0.00 | 49 | 1010.2 |
| 20260504002531 | 53 | 0 | 0.0 | 0.0 | 0.00 | 0.00 | 0.00 | 45 | 1010.0 |
| 20260504002027 | 53 | 0 | 0.0 | 3.5 | 0.00 | 0.00 | 0.00 | 45 | 1009.9 |
| 20260504001537 | 54 | 0 | 0.0 | 3.5 | 0.00 | 0.00 | 0.00 | 43 | 1009.8 |
| 20260504001030 | 54 | 218 | 0.0 | 4.3 | 0.00 | 0.00 | 0.00 | 44 | 1009.8 |
| 20260504000528 | 54 | 248 | 0.0 | 4.3 | 0.00 | 0.00 | 0.00 | 44 | 1009.7 |
| 20260504000111 | 55 | 276 | 0.0 | 0.0 | 0.00 | 0.00 | 0.00 | 43 | 1009.6 |
| 20260503235528 | 55 | 0 | 0.0 | 5.2 | 0.00 | 0.00 | 0.00 | 42 | 1009.5 |
| 20260503235028 | 55 | 0 | 0.0 | 5.2 | 0.00 | 0.00 | 0.00 | 39 | 1009.5 |
| 20260503234539 | 56 | 284 | 0.9 | 5.2 | 0.00 | 0.00 | 0.00 | 38 | 1009.4 |
| 20260503234028 | 56 | 0 | 0.9 | 2.6 | 0.00 | 0.00 | 0.00 | 36 | 1009.4 |
| 20260503233530 | 56 | 0 | 0.0 | 6.1 | 0.00 | 0.00 | 0.00 | 38 | 1009.3 |
| 20260503233041 | 56 | 0 | 1.7 | 6.1 | 0.00 | 0.00 | 0.00 | 35 | 1009.3 |
| 20260503232530 | 56 | 292 | 0.0 | 2.6 | 0.00 | 0.00 | 0.00 | 44 | 1009.3 |
| 20260503232027 | 56 | 0 | 0.0 | 7.0 | 0.00 | 0.00 | 0.00 | 32 | 1009.3 |
| 20260503231541 | 57 | 292 | 0.9 | 7.0 | 0.00 | 0.00 | 0.00 | 33 | 1009.1 |
| 20260503231031 | 57 | 306 | 2.6 | 7.8 | 0.00 | 0.00 | 0.00 | 32 | 1009.1 |
| 20260503230528 | 57 | 0 | 1.7 | 7.8 | 0.00 | 0.00 | 0.00 | 31 | 1009.0 |
| 20260503230044 | 57 | 315 | 0.9 | 5.2 | 0.00 | 0.00 | 0.00 | 31 | 1009.0 |
| 20260503225527 | 57 | 291 | 0.9 | 3.5 | 0.00 | 0.00 | 0.00 | 32 | 1009.0 |
| 20260503225029 | 57 | 0 | 0.9 | 4.3 | 0.00 | 0.00 | 0.00 | 30 | 1008.8 |
| 20260503224542 | 58 | 0 | 1.7 | 7.8 | 0.00 | 0.00 | 0.00 | 30 | 1008.8 |
| 20260503224031 | 58 | 313 | 0.9 | 8.7 | 0.00 | 0.00 | 0.00 | 32 | 1008.8 |
| 20260503223528 | 58 | 333 | 1.7 | 8.7 | 0.00 | 0.00 | 0.00 | 29 | 1008.8 |
| 20260503223039 | 58 | 303 | 0.9 | 8.7 | 0.00 | 0.00 | 0.00 | 31 | 1008.7 |
| 20260503222527 | 59 | 331 | 1.7 | 7.0 | 0.00 | 0.00 | 0.00 | 29 | 1008.5 |
| 20260503222028 | 59 | 0 | 1.7 | 7.8 | 0.00 | 0.00 | 0.00 | 29 | 1008.5 |
| 20260503221541 | 59 | 269 | 1.7 | 10.4 | 0.00 | 0.00 | 0.00 | 29 | 1008.6 |
| 20260503221027 | 59 | 304 | 3.5 | 12.2 | 0.00 | 0.00 | 0.00 | 28 | 1008.7 |
| 20260503220528 | 59 | 258 | 1.7 | 12.2 | 0.00 | 0.00 | 0.00 | 30 | 1008.8 |
| 20260503220049 | 59 | 325 | 3.5 | 11.3 | 0.00 | 0.00 | 0.00 | 29 | 1009.0 |
| 20260503215530 | 59 | 0 | 0.9 | 11.3 | 0.00 | 0.00 | 0.00 | 30 | 1008.8 |